******** Week 344 almanac for PRN-01 ******** ID: 01 Health: 000 Eccentricity: 0.1005649567E-002 Time of Applicability(s): 147456.0000 Orbital Inclination(rad): 0.9585426496 Rate of Right Ascen(r/s): -0.8080336578E-008 SQRT(A) (m 1/2): 5153.597168 Right Ascen at Week(rad): -0.1139667581E+001 Argument of Perigee(rad): -0.102557252 Mean Anom(rad): 0.3078908042E+001 Af0(s): 0.3547668457E-003 Af1(s/s): 0.0000000000E+000 week: 344 ******** Week 344 almanac for PRN-02 ******** ID: 02 Health: 000 Eccentricity: 0.1679468155E-001 Time of Applicability(s): 147456.0000 Orbital Inclination(rad): 0.9641153141 Rate of Right Ascen(r/s): -0.7920329914E-008 SQRT(A) (m 1/2): 5153.592285 Right Ascen at Week(rad): -0.1302815950E+001 Argument of Perigee(rad): -0.902357832 Mean Anom(rad): -0.1853909783E+001 Af0(s): -0.3051757812E-004 Af1(s/s): 0.7275957614E-011 week: 344 ******** Week 344 almanac for PRN-03 ******** ID: 03 Health: 000 Eccentricity: 0.6317615509E-002 Time of Applicability(s): 147456.0000 Orbital Inclination(rad): 0.9922362979 Rate of Right Ascen(r/s): -0.7794610391E-008 SQRT(A) (m 1/2): 5153.643066 Right Ascen at Week(rad): -0.1563372099E+000 Argument of Perigee(rad): 1.227754255 Mean Anom(rad): 0.7570599656E+000 Af0(s): 0.6465911865E-003 Af1(s/s): -0.7275957614E-011 week: 344 ******** Week 344 almanac for PRN-04 ******** ID: 04 Health: 000 Eccentricity: 0.3616809845E-002 Time of Applicability(s): 147456.0000 Orbital Inclination(rad): 0.9693104756 Rate of Right Ascen(r/s): -0.7726036106E-008 SQRT(A) (m 1/2): 5153.722168 Right Ascen at Week(rad): 0.9153723256E+000 Argument of Perigee(rad): -2.964839193 Mean Anom(rad): -0.2358279745E+001 Af0(s): 0.2288818359E-004 Af1(s/s): 0.3637978807E-011 week: 344 ******** Week 344 almanac for PRN-05 ******** ID: 05 Health: 000 Eccentricity: 0.5498409271E-002 Time of Applicability(s): 147456.0000 Orbital Inclination(rad): 0.9788678950 Rate of Right Ascen(r/s): -0.7931758961E-008 SQRT(A) (m 1/2): 5153.597656 Right Ascen at Week(rad): -0.2145846626E+000 Argument of Perigee(rad): 1.439010300 Mean Anom(rad): -0.1864694837E+001 Af0(s): -0.2231597900E-003 Af1(s/s): 0.0000000000E+000 week: 344 ******** Week 344 almanac for PRN-06 ******** ID: 06 Health: 000 Eccentricity: 0.3655433655E-002 Time of Applicability(s): 147456.0000 Orbital Inclination(rad): 0.9875264975 Rate of Right Ascen(r/s): -0.7771752296E-008 SQRT(A) (m 1/2): 5153.637207 Right Ascen at Week(rad): -0.1192318400E+001 Argument of Perigee(rad): -0.700365968 Mean Anom(rad): 0.2234471092E+001 Af0(s): -0.5693435669E-003 Af1(s/s): -0.7275957614E-011 week: 344 ******** Week 344 almanac for PRN-07 ******** ID: 07 Health: 000 Eccentricity: 0.1994943619E-001 Time of Applicability(s): 147456.0000 Orbital Inclination(rad): 0.9503694082 Rate of Right Ascen(r/s): -0.7863184676E-008 SQRT(A) (m 1/2): 5153.607910 Right Ascen at Week(rad): 0.1925223037E+001 Argument of Perigee(rad): -2.017827390 Mean Anom(rad): 0.1241785910E+001 Af0(s): -0.1049041748E-003 Af1(s/s): -0.7275957614E-011 week: 344 ******** Week 344 almanac for PRN-08 ******** ID: 08 Health: 000 Eccentricity: 0.1097965240E-001 Time of Applicability(s): 147456.0000 Orbital Inclination(rad): 0.9452821047 Rate of Right Ascen(r/s): -0.7943188009E-008 SQRT(A) (m 1/2): 5153.587891 Right Ascen at Week(rad): -0.2308642958E+001 Argument of Perigee(rad): 0.474165221 Mean Anom(rad): -0.2171596231E+001 Af0(s): 0.5235671997E-003 Af1(s/s): -0.3637978807E-011 week: 344 ******** Week 344 almanac for PRN-09 ******** ID: 09 Health: 000 Eccentricity: 0.3532886505E-002 Time of Applicability(s): 147456.0000 Orbital Inclination(rad): 0.9634262212 Rate of Right Ascen(r/s): -0.7806039439E-008 SQRT(A) (m 1/2): 5153.566895 Right Ascen at Week(rad): 0.8519270899E+000 Argument of Perigee(rad): 2.041947515 Mean Anom(rad): -0.1621764112E+001 Af0(s): 0.7610321045E-003 Af1(s/s): 0.3637978807E-011 week: 344 ******** Week 344 almanac for PRN-10 ******** ID: 10 Health: 000 Eccentricity: 0.1080513000E-001 Time of Applicability(s): 147456.0000 Orbital Inclination(rad): 0.9917988737 Rate of Right Ascen(r/s): -0.7794610391E-008 SQRT(A) (m 1/2): 5153.606934 Right Ascen at Week(rad): -0.1588452835E+000 Argument of Perigee(rad): -2.299669770 Mean Anom(rad): -0.1695917627E+000 Af0(s): -0.5598068237E-003 Af1(s/s): -0.3637978807E-011 week: 344 ******** Week 344 almanac for PRN-11 ******** ID: 11 Health: 000 Eccentricity: 0.2280235291E-002 Time of Applicability(s): 147456.0000 Orbital Inclination(rad): 0.9643669829 Rate of Right Ascen(r/s): -0.8011762293E-008 SQRT(A) (m 1/2): 5153.700684 Right Ascen at Week(rad): -0.1171053517E+001 Argument of Perigee(rad): -2.297275921 Mean Anom(rad): -0.3074007992E+001 Af0(s): -0.5502700806E-003 Af1(s/s): 0.1455191523E-010 week: 344 ******** Week 344 almanac for PRN-12 ******** ID: 12 Health: 000 Eccentricity: 0.8901119232E-002 Time of Applicability(s): 147456.0000 Orbital Inclination(rad): 0.9599268275 Rate of Right Ascen(r/s): -0.7840326581E-008 SQRT(A) (m 1/2): 5153.547363 Right Ascen at Week(rad): 0.3042428061E+001 Argument of Perigee(rad): 1.522704756 Mean Anom(rad): 0.5920978588E+000 Af0(s): -0.6036758423E-003 Af1(s/s): 0.0000000000E+000 week: 344 ******** Week 344 almanac for PRN-13 ******** ID: 13 Health: 000 Eccentricity: 0.9841442108E-002 Time of Applicability(s): 147456.0000 Orbital Inclination(rad): 0.9750029825 Rate of Right Ascen(r/s): -0.7646032774E-008 SQRT(A) (m 1/2): 5153.631348 Right Ascen at Week(rad): 0.1025516715E+001 Argument of Perigee(rad): 1.007540003 Mean Anom(rad): -0.2466432507E+001 Af0(s): 0.6942749023E-003 Af1(s/s): 0.0000000000E+000 week: 344 ******** Week 344 almanac for PRN-14 ******** ID: 14 Health: 000 Eccentricity: 0.6308555603E-002 Time of Applicability(s): 147456.0000 Orbital Inclination(rad): 0.9432328022 Rate of Right Ascen(r/s): -0.8011762293E-008 SQRT(A) (m 1/2): 5153.578125 Right Ascen at Week(rad): 0.2989606466E+001 Argument of Perigee(rad): -2.764698517 Mean Anom(rad): 0.4122861738E+000 Af0(s): 0.7133483887E-003 Af1(s/s): 0.3637978807E-011 week: 344 ******** Week 344 almanac for PRN-15 ******** ID: 15 Health: 000 Eccentricity: 0.1668024063E-001 Time of Applicability(s): 147456.0000 Orbital Inclination(rad): 0.9412494130 Rate of Right Ascen(r/s): -0.8046049436E-008 SQRT(A) (m 1/2): 5153.599609 Right Ascen at Week(rad): 0.7106356998E+000 Argument of Perigee(rad): 1.481607478 Mean Anom(rad): 0.3091015854E+001 Af0(s): 0.3566741943E-003 Af1(s/s): 0.3637978807E-011 week: 344 ******** Week 344 almanac for PRN-16 ******** ID: 16 Health: 000 Eccentricity: 0.1478338242E-001 Time of Applicability(s): 147456.0000 Orbital Inclination(rad): 0.9591238845 Rate of Right Ascen(r/s): -0.7851755629E-008 SQRT(A) (m 1/2): 5153.536621 Right Ascen at Week(rad): 0.3059574116E+001 Argument of Perigee(rad): 0.905292843 Mean Anom(rad): -0.1206471021E+001 Af0(s): 0.1440048218E-003 Af1(s/s): 0.7275957614E-011 week: 344 ******** Week 344 almanac for PRN-17 ******** ID: 17 Health: 000 Eccentricity: 0.1313400269E-001 Time of Applicability(s): 147456.0000 Orbital Inclination(rad): 0.9609394945 Rate of Right Ascen(r/s): -0.7794610391E-008 SQRT(A) (m 1/2): 5153.739258 Right Ascen at Week(rad): -0.2205645661E+001 Argument of Perigee(rad): -1.166196161 Mean Anom(rad): -0.2284852025E+001 Af0(s): 0.3814697266E-004 Af1(s/s): -0.1455191523E-010 week: 344 ******** Week 344 almanac for PRN-18 ******** ID: 18 Health: 000 Eccentricity: 0.5702972412E-002 Time of Applicability(s): 147456.0000 Orbital Inclination(rad): 0.9724743110 Rate of Right Ascen(r/s): -0.7920329914E-008 SQRT(A) (m 1/2): 5153.617188 Right Ascen at Week(rad): -0.1195774351E+001 Argument of Perigee(rad): -2.866119515 Mean Anom(rad): 0.2003560919E+001 Af0(s): -0.5064010620E-003 Af1(s/s): 0.1091393642E-010 week: 344 ******** Week 344 almanac for PRN-19 ******** ID: 19 Health: 000 Eccentricity: 0.1085042953E-001 Time of Applicability(s): 147456.0000 Orbital Inclination(rad): 0.9601125830 Rate of Right Ascen(r/s): -0.7806039439E-008 SQRT(A) (m 1/2): 5153.639648 Right Ascen at Week(rad): -0.2161665054E+001 Argument of Perigee(rad): 2.893106117 Mean Anom(rad): -0.4008622114E+000 Af0(s): 0.6742477417E-003 Af1(s/s): 0.3637978807E-011 week: 344 ******** Week 344 almanac for PRN-20 ******** ID: 20 Health: 000 Eccentricity: 0.3656864166E-002 Time of Applicability(s): 147456.0000 Orbital Inclination(rad): 0.9606159205 Rate of Right Ascen(r/s): -0.8137481816E-008 SQRT(A) (m 1/2): 5153.568359 Right Ascen at Week(rad): -0.3526283277E+000 Argument of Perigee(rad): -2.145007730 Mean Anom(rad): 0.2279423171E+001 Af0(s): 0.3623962402E-003 Af1(s/s): 0.0000000000E+000 week: 344 ******** Week 344 almanac for PRN-21 ******** ID: 21 Health: 000 Eccentricity: 0.2536773682E-003 Time of Applicability(s): 147456.0000 Orbital Inclination(rad): 0.9616465638 Rate of Right Ascen(r/s): -0.8103194673E-008 SQRT(A) (m 1/2): 5153.654297 Right Ascen at Week(rad): -0.1467490810E+000 Argument of Perigee(rad): -0.469964001 Mean Anom(rad): 0.4868988345E+000 Af0(s): 0.3194808960E-003 Af1(s/s): 0.1455191523E-010 week: 344 ******** Week 344 almanac for PRN-22 ******** ID: 22 Health: 000 Eccentricity: 0.1257848740E-001 Time of Applicability(s): 147456.0000 Orbital Inclination(rad): 0.9585486417 Rate of Right Ascen(r/s): -0.7828897534E-008 SQRT(A) (m 1/2): 5153.580566 Right Ascen at Week(rad): 0.3062890002E+001 Argument of Perigee(rad): -1.016319197 Mean Anom(rad): -0.1648472081E+001 Af0(s): -0.7915496826E-004 Af1(s/s): 0.3637978807E-011 week: 344 ******** Week 344 almanac for PRN-23 ******** ID: 23 Health: 000 Eccentricity: 0.5895614624E-002 Time of Applicability(s): 147456.0000 Orbital Inclination(rad): 0.9868194282 Rate of Right Ascen(r/s): -0.7851755629E-008 SQRT(A) (m 1/2): 5153.644043 Right Ascen at Week(rad): -0.1903828949E+000 Argument of Perigee(rad): -2.791481762 Mean Anom(rad): 0.9611434511E+000 Af0(s): 0.5702972412E-003 Af1(s/s): 0.3637978807E-011 week: 344 ******** Week 344 almanac for PRN-24 ******** ID: 24 Health: 000 Eccentricity: 0.1769638062E-001 Time of Applicability(s): 147456.0000 Orbital Inclination(rad): 0.9342686020 Rate of Right Ascen(r/s): -0.8011762293E-008 SQRT(A) (m 1/2): 5153.599121 Right Ascen at Week(rad): 0.1818703501E+001 Argument of Perigee(rad): 1.114189868 Mean Anom(rad): 0.2224769488E+001 Af0(s): -0.2422332764E-003 Af1(s/s): 0.1455191523E-010 week: 344 ******** Week 344 almanac for PRN-25 ******** ID: 25 Health: 000 Eccentricity: 0.1266241074E-001 Time of Applicability(s): 147456.0000 Orbital Inclination(rad): 0.9481762950 Rate of Right Ascen(r/s): -0.7966046104E-008 SQRT(A) (m 1/2): 5153.712891 Right Ascen at Week(rad): 0.2949904227E+001 Argument of Perigee(rad): 1.136624337 Mean Anom(rad): 0.5276122426E+000 Af0(s): 0.4625320435E-003 Af1(s/s): -0.3637978807E-011 week: 344 ******** Week 344 almanac for PRN-26 ******** ID: 26 Health: 000 Eccentricity: 0.1069831848E-001 Time of Applicability(s): 147456.0000 Orbital Inclination(rad): 0.9288996693 Rate of Right Ascen(r/s): -0.8183198006E-008 SQRT(A) (m 1/2): 5153.594238 Right Ascen at Week(rad): 0.2877529620E+001 Argument of Perigee(rad): 0.673221699 Mean Anom(rad): -0.3311522222E+000 Af0(s): -0.2784729004E-003 Af1(s/s): -0.3637978807E-011 week: 344 ******** Week 344 almanac for PRN-27 ******** ID: 27 Health: 000 Eccentricity: 0.1375579834E-001 Time of Applicability(s): 147456.0000 Orbital Inclination(rad): 0.9543541630 Rate of Right Ascen(r/s): -0.7863184676E-008 SQRT(A) (m 1/2): 5153.607910 Right Ascen at Week(rad): -0.2277576102E+001 Argument of Perigee(rad): 0.855689388 Mean Anom(rad): -0.2093524623E+001 Af0(s): -0.3623962402E-004 Af1(s/s): -0.3637978807E-011 week: 344 ******** Week 344 almanac for PRN-28 ******** ID: 28 Health: 000 Eccentricity: 0.4367828369E-003 Time of Applicability(s): 147456.0000 Orbital Inclination(rad): 0.9613349740 Rate of Right Ascen(r/s): -0.7760323249E-008 SQRT(A) (m 1/2): 5153.663086 Right Ascen at Week(rad): 0.1898190371E+001 Argument of Perigee(rad): 0.551608780 Mean Anom(rad): 0.1092483815E+001 Af0(s): -0.6322860718E-003 Af1(s/s): 0.3637978807E-011 week: 344 ******** Week 344 almanac for PRN-29 ******** ID: 29 Health: 000 Eccentricity: 0.3301620483E-002 Time of Applicability(s): 147456.0000 Orbital Inclination(rad): 0.9635460635 Rate of Right Ascen(r/s): -0.7794610391E-008 SQRT(A) (m 1/2): 5153.522949 Right Ascen at Week(rad): -0.2189234388E+001 Argument of Perigee(rad): 2.783152351 Mean Anom(rad): -0.2259039128E+001 Af0(s): -0.4272460938E-003 Af1(s/s): 0.7275957614E-011 week: 344 ******** Week 344 almanac for PRN-30 ******** ID: 30 Health: 000 Eccentricity: 0.7696628571E-002 Time of Applicability(s): 147456.0000 Orbital Inclination(rad): 0.9355988510 Rate of Right Ascen(r/s): -0.8034620388E-008 SQRT(A) (m 1/2): 5153.530762 Right Ascen at Week(rad): 0.1917884572E+001 Argument of Perigee(rad): -2.354411837 Mean Anom(rad): 0.1139578074E+001 Af0(s): 0.2002716064E-004 Af1(s/s): 0.1091393642E-010 week: 344 ******** Week 344 almanac for PRN-31 ******** ID: 31 Health: 000 Eccentricity: 0.1092147827E-001 Time of Applicability(s): 147456.0000 Orbital Inclination(rad): 0.9541863838 Rate of Right Ascen(r/s): -0.7840326581E-008 SQRT(A) (m 1/2): 5153.684570 Right Ascen at Week(rad): 0.1948973898E+001 Argument of Perigee(rad): 0.905960964 Mean Anom(rad): 0.2374543088E+000 Af0(s): -0.1831054688E-003 Af1(s/s): 0.0000000000E+000 week: 344 ******** Week 344 almanac for PRN-32 ******** ID: 32 Health: 000 Eccentricity: 0.8835315704E-002 Time of Applicability(s): 147456.0000 Orbital Inclination(rad): 0.9665241433 Rate of Right Ascen(r/s): -0.7737465154E-008 SQRT(A) (m 1/2): 5153.638184 Right Ascen at Week(rad): 0.8685327316E+000 Argument of Perigee(rad): -2.055205813 Mean Anom(rad): -0.1446018824E+001 Af0(s): -0.2536773682E-003 Af1(s/s): 0.1455191523E-010 week: 344